Flag for Thailand Weather past 2 weeks in Phuket, Thailand

Now
77 °F

Broken clouds.


Feels Like: 78 °F
Forecast: 79 / 89 °F
Wind: 5 mph from East

Location: Phuket Airport

Current Time: May 26, 2015 at 7:49:30 AM

Latest Report: May 26, 2015 at 7:00 AM


Visibility: 4 mi

Pressure: 29.89 "Hg

Humidity: 89%

Dew point: 73 °F

Location of PhuketLocation

Historic Weather in Phuket — Graph

°F

Phuket temperature yesterday

Maximum temperature yesterday: 88 °F (at 11:30 AM)
Minimum temperature yesterday: 77 °F (at 12:00 AM)
Average temperature yesterday: 81 °F

Past Weeks' High & Low Weather Summary

 TemperatureHumidityPressure
High91 °F (May 11, 12:00 PM)94% (May 13, 7:00 AM)29.92 "Hg (May 13, 7:00 AM)
Low73 °F (May 18, 6:00 AM)55% (May 11, 1:30 PM)29.74 "Hg (May 17, 4:30 PM)
Average84 °F76%29.85 "Hg
* Reported May 11 6:00 AM — May 26 6:30 AM, Phuket, Weather by CustomWeather, © 2015

Note: Actual official high and low records may vary slightly from our data, if they occured in-between our weather recording intervals... More about our weather records

Advertising

Phuket weather history for previous 24 hours

 ConditionsComfort  
Time TempWeatherWind HumidityBarometerVisibility
6:30 AM
Tue, May 26
79 °FBroken clouds.8 mph84%29.89 "Hg5 mi
6:00 AM81 °FPartly cloudy.5 mph79%29.86 "Hg5 mi
5:30 AM79 °FPartly cloudy.3 mph89%29.86 "Hg5 mi
5:00 AM82 °FPartly cloudy.3 mph74%29.86 "Hg5 mi
4:30 AM82 °FPartly cloudy.5 mph74%29.86 "Hg5 mi
3:30 AM77 °FPartly cloudy.2 mph89%29.83 "Hg5 mi
3:00 AM77 °FPartly cloudy.2 mph89%29.83 "Hg5 mi
2:30 AM77 °FPartly cloudy.2 mph89%29.86 "Hg5 mi
2:00 AM77 °FPartly cloudy.2 mph89%29.86 "Hg5 mi
1:30 AM77 °FLight rain. Partly cloudy.1 mph83%29.86 "Hg4 mi
1:00 AM77 °FLight rain. Partly cloudy.2 mph83%29.89 "Hg4 mi
12:30 AM79 °FPartly cloudy.3 mph79%29.89 "Hg5 mi
12:00 AM81 °FPartly cloudy.7 mph79%29.89 "Hg5 mi
11:30 PM
Mon, May 25
82 °FPartly cloudy.13 mph74%29.92 "Hg5 mi
11:00 PM81 °FPartly cloudy.7 mph79%29.92 "Hg5 mi
10:30 PM81 °FPartly cloudy.9 mph79%29.92 "Hg5 mi
10:00 PM81 °FPartly cloudy.10 mph79%29.89 "Hg5 mi
9:30 PM79 °FPartly cloudy.16 mph84%29.89 "Hg4 mi
9:00 PM81 °FRain. Partly cloudy.23 mph84%29.89 "Hg3 mi
8:30 PM82 °FPartly cloudy.7 mph74%29.89 "Hg4 mi
8:00 PM82 °FPartly cloudy.8 mph70%29.86 "Hg4 mi
7:30 PM82 °FPartly cloudy.10 mph74%29.86 "Hg4 mi
7:00 PM79 °FLight rain. Partly cloudy.2 mph84%29.83 "Hg4 mi
6:30 PM79 °FLight rain. Broken clouds.5 mph84%29.83 "Hg4 mi
6:00 PM79 °FBroken clouds.5 mph84%29.83 "Hg4 mi
5:30 PM79 °FBroken clouds.12 mph84%29.83 "Hg4 mi
5:00 PM79 °FRain. Broken clouds.18 mph89%29.80 "Hg3 mi
4:30 PM79 °FLight rain. Broken clouds.7 mph89%29.80 "Hg4 mi
4:00 PM79 °FRain. Broken clouds.14 mph84%29.80 "Hg2 mi
3:30 PM81 °FBroken clouds.10 mph79%29.80 "Hg4 mi
3:00 PM82 °FBroken clouds.14 mph74%29.80 "Hg4 mi
2:30 PM82 °FBroken clouds.9 mph79%29.83 "Hg4 mi
2:00 PM88 °FBroken clouds.13 mph66%29.83 "Hg5 mi
1:30 PM88 °FBroken clouds.12 mph66%29.83 "Hg5 mi
1:00 PM88 °FBroken clouds.8 mph70%29.83 "Hg5 mi
12:30 PM88 °FBroken clouds.9 mph70%29.86 "Hg5 mi
12:00 PM86 °FBroken clouds.6 mph75%29.86 "Hg5 mi
11:30 AM88 °FBroken clouds.6 mph70%29.89 "Hg5 mi
10:30 AM86 °FBroken clouds.3 mph75%29.89 "Hg5 mi
10:00 AM84 °FBroken clouds.2 mph79%29.86 "Hg5 mi
9:30 AM82 °FBroken clouds.2 mph79%29.86 "Hg5 mi
9:00 AM82 °FBroken clouds.No wind84%29.86 "Hg5 mi
8:30 AM82 °FBroken clouds.No wind84%29.86 "Hg5 mi
8:00 AM81 °FBroken clouds.6 mph84%29.86 "Hg5 mi
7:30 AM81 °FBroken clouds.10 mph84%29.86 "Hg5 mi
7:00 AM79 °FBroken clouds.9 mph89%29.86 "Hg5 mi
Weather by CustomWeather, © 2015

See weather overviewHow to use our weather pages